Hourly Weather Kozlivka

Today, 20 October, Tuesday

Time Temperature Precipitation Wind Pressure Humidity
00:00 +7°C° 0 mm 3 mps 760 mmHg 74%
01:00 +7°C° 0 mm 3 mps 760 mmHg 75%
02:00 +7°C° 0 mm 3 mps 761 mmHg 79%
03:00 +5°C° 0 mm 3 mps 761 mmHg 81%
04:00 +5°C° 0 mm 3 mps 761 mmHg 83%
05:00 +6°C° 0 mm 2 mps 761 mmHg 85%
06:00 +5°C° 0 mm 3 mps 761 mmHg 81%
07:00 +7°C° 0 mm 3 mps 761 mmHg 78%
08:00 +8°C° 0 mm 3 mps 762 mmHg 74%
09:00 +8°C° 0 mm 4 mps 762 mmHg 65%
10:00 +11°C° 0 mm 4 mps 762 mmHg 56%
11:00 +12°C° 0 mm 5 mps 761 mmHg 46%
12:00 +13°C° 0 mm 5 mps 761 mmHg 45%
13:00 +13°C° 0 mm 5 mps 761 mmHg 44%
14:00 +13°C° 0 mm 5 mps 761 mmHg 43%
15:00 +13°C° 0 mm 5 mps 761 mmHg 46%
16:00 +12°C° 0 mm 4 mps 761 mmHg 49%
17:00 +11°C° 0 mm 3 mps 761 mmHg 52%
18:00 +11°C° 0 mm 3 mps 762 mmHg 55%
19:00 +10°C° 0 mm 2 mps 762 mmHg 57%
20:00 +9°C° 0 mm 2 mps 762 mmHg 60%
21:00 +9°C° 0 mm 2 mps 763 mmHg 62%
22:00 +8°C° 0 mm 2 mps 763 mmHg 65%
23:00 +8°C° 0 mm 2 mps 763 mmHg 67%

Tomorrow, 21 October, Wednesday

Time Temperature Precipitation Wind Pressure Humidity
00:00 +9°C° 0 mm 1 mps 763 mmHg 68%
01:00 +8°C° 0 mm 1 mps 763 mmHg 69%
02:00 +8°C° 0 mm 1 mps 763 mmHg 71%
03:00 +8°C° 0 mm 1 mps 763 mmHg 71%
04:00 +8°C° 0 mm 1 mps 763 mmHg 72%
05:00 +7°C° 0 mm 1 mps 763 mmHg 72%
06:00 +8°C° 0 mm 1 mps 763 mmHg 70%
07:00 +9°C° 0 mm 1 mps 763 mmHg 67%
08:00 +8°C° 0 mm 2 mps 763 mmHg 64%
09:00 +10°C° 0 mm 3 mps 762 mmHg 59%
10:00 +12°C° 0 mm 4 mps 762 mmHg 54%
11:00 +13°C° 0 mm 5 mps 762 mmHg 49%
12:00 +14°C° 0 mm 5 mps 761 mmHg 50%
13:00 +14°C° 0 mm 5 mps 761 mmHg 50%
14:00 +15°C° 0 mm 6 mps 760 mmHg 50%
15:00 +14°C° 0 mm 5 mps 760 mmHg 53%
16:00 +14°C° 0 mm 4 mps 759 mmHg 56%
17:00 +13°C° 0 mm 4 mps 759 mmHg 59%
18:00 +13°C° 0 mm 4 mps 758 mmHg 63%
19:00 +12°C° 0 mm 5 mps 758 mmHg 67%
20:00 +12°C° 0 mm 5 mps 758 mmHg 70%
21:00 +12°C° 0 mm 5 mps 758 mmHg 72%
22:00 +12°C° 0 mm 4 mps 758 mmHg 73%
23:00 +12°C° 0 mm 4 mps 758 mmHg 74%

Day after tomorrow, 22 October, Thursday

Time Temperature Precipitation Wind Pressure Humidity
00:00 +11°C° 0 mm 4 mps 758 mmHg 77%
01:00 +11°C° 0 mm 3 mps 758 mmHg 79%
02:00 +10°C° 0 mm 3 mps 758 mmHg 81%
03:00 +10°C° 0 mm 2 mps 758 mmHg 81%
04:00 +9°C° 0 mm 2 mps 757 mmHg 80%
05:00 +9°C° 0 mm 2 mps 757 mmHg 79%
06:00 +9°C° 0 mm 2 mps 757 mmHg 74%
07:00 +11°C° 0 mm 1 mps 758 mmHg 70%
08:00 +12°C° 0 mm 1 mps 758 mmHg 66%
09:00 +13°C° 0 mm 1 mps 758 mmHg 58%
10:00 +15°C° 0 mm 1 mps 758 mmHg 50%
11:00 +16°C° 0 mm 1 mps 758 mmHg 42%
12:00 +18°C° 0 mm 1 mps 758 mmHg 39%
13:00 +18°C° 0 mm 2 mps 758 mmHg 36%
14:00 +19°C° 0 mm 2 mps 758 mmHg 34%
15:00 +18°C° 0 mm 2 mps 757 mmHg 37%
16:00 +18°C° 0 mm 1 mps 757 mmHg 40%
17:00 +16°C° 0 mm 1 mps 757 mmHg 43%
18:00 +16°C° 0 mm 1 mps 757 mmHg 44%
19:00 +15°C° 0 mm 1 mps 758 mmHg 44%
20:00 +15°C° 0 mm 1 mps 758 mmHg 45%
21:00 +14°C° 0 mm 1 mps 758 mmHg 46%
22:00 +14°C° 0 mm 2 mps 758 mmHg 46%
23:00 +14°C° 0 mm 2 mps 758 mmHg 47%

23 October, Friday

Time Temperature Precipitation Wind Pressure Humidity
00:00 +13°C° 0 mm 2 mps 757 mmHg 48%
01:00 +13°C° 0 mm 2 mps 757 mmHg 50%
02:00 +13°C° 0 mm 1 mps 757 mmHg 52%
03:00 +12°C° 0 mm 2 mps 757 mmHg 57%
04:00 +12°C° 0 mm 2 mps 757 mmHg 61%
05:00 +12°C° 0 mm 2 mps 757 mmHg 65%
06:00 +13°C° 0 mm 2 mps 757 mmHg 69%
07:00 +12°C° 0 mm 3 mps 757 mmHg 73%
08:00 +13°C° 0 mm 3 mps 756 mmHg 77%
09:00 +15°C° 0 mm 4 mps 756 mmHg 69%
10:00 +17°C° 0 mm 5 mps 756 mmHg 61%
11:00 +20°C° 0 mm 6 mps 756 mmHg 53%
12:00 +21°C° 0 mm 6 mps 755 mmHg 51%
13:00 +21°C° 0 mm 6 mps 755 mmHg 49%
14:00 +22°C° 0 mm 7 mps 754 mmHg 47%
15:00 +21°C° 0 mm 6 mps 754 mmHg 53%
16:00 +19°C° 0 mm 6 mps 753 mmHg 59%
17:00 +17°C° 0 mm 5 mps 753 mmHg 65%
18:00 +16°C° 0 mm 5 mps 753 mmHg 71%
19:00 +16°C° 0 mm 5 mps 753 mmHg 77%
20:00 +15°C° 0 mm 5 mps 753 mmHg 82%
21:00 +14°C° 0 mm 5 mps 753 mmHg 84%
22:00 +14°C° 0 mm 5 mps 753 mmHg 86%
23:00 +13°C° 0 mm 4 mps 753 mmHg 87%

24 October, Saturday

Time Temperature Precipitation Wind Pressure Humidity
00:00 +13°C° 0 mm 4 mps 753 mmHg 83%
01:00 +12°C° 0 mm 3 mps 752 mmHg 78%
02:00 +12°C° 0 mm 3 mps 752 mmHg 74%
03:00 +12°C° 0 mm 2 mps 752 mmHg 71%
04:00 +12°C° 0 mm 2 mps 752 mmHg 69%
05:00 +12°C° 0 mm 2 mps 752 mmHg 66%
06:00 +13°C° 0 mm 1 mps 752 mmHg 64%
07:00 +13°C° 0 mm 1 mps 752 mmHg 63%
08:00 +14°C° 0 mm 1 mps 752 mmHg 61%
09:00 +15°C° 0 mm 1 mps 752 mmHg 57%
10:00 +18°C° 0 mm 1 mps 752 mmHg 53%
11:00 +18°C° 0 mm 2 mps 752 mmHg 49%
12:00 +18°C° 0 mm 2 mps 752 mmHg 51%
13:00 +18°C° 0 mm 2 mps 752 mmHg 53%
14:00 +18°C° 0 mm 3 mps 752 mmHg 55%
15:00 +17°C° 0 mm 2 mps 752 mmHg 60%
16:00 +16°C° 0 mm 2 mps 751 mmHg 65%
17:00 +15°C° 0 mm 2 mps 751 mmHg 70%
18:00 +15°C° 0 mm 2 mps 751 mmHg 73%
19:00 +14°C° 0 mm 2 mps 752 mmHg 77%
20:00 +14°C° 0 mm 2 mps 752 mmHg 80%
21:00 +13°C° 0.1 mm 3 mps 752 mmHg 83%
22:00 +13°C° 0.1 mm 3 mps 752 mmHg 85%
23:00 +13°C° 0.1 mm 4 mps 752 mmHg 87%

25 October, Sunday

Time Temperature Precipitation Wind Pressure Humidity
00:00 +13°C° 0.1 mm 4 mps 752 mmHg 87%
01:00 +13°C° 0.1 mm 4 mps 752 mmHg 87%
02:00 +13°C° 0.1 mm 4 mps 752 mmHg 87%
03:00 +12°C° 0 mm 4 mps 752 mmHg 87%
04:00 +11°C° 0 mm 4 mps 752 mmHg 87%
05:00 +10°C° 0 mm 4 mps 753 mmHg 87%
06:00 +9°C° 0 mm 5 mps 753 mmHg 81%
07:00 +10°C° 0 mm 6 mps 753 mmHg 76%
08:00 +10°C° 0 mm 7 mps 753 mmHg 70%
09:00 +11°C° 0 mm 7 mps 754 mmHg 62%
10:00 +11°C° 0 mm 7 mps 754 mmHg 54%
11:00 +12°C° 0 mm 7 mps 754 mmHg 46%
12:00 +12°C° 0 mm 7 mps 754 mmHg 48%
13:00 +12°C° 0 mm 7 mps 754 mmHg 49%
14:00 +12°C° 0 mm 7 mps 754 mmHg 50%
15:00 +11°C° 0 mm 6 mps 754 mmHg 54%
16:00 +10°C° 0 mm 6 mps 755 mmHg 57%
17:00 +9°C° 0 mm 5 mps 755 mmHg 61%
18:00 +9°C° 0 mm 5 mps 755 mmHg 63%
19:00 +8°C° 0 mm 4 mps 755 mmHg 64%
20:00 +8°C° 0 mm 4 mps 756 mmHg 66%
21:00 +8°C° 0 mm 4 mps 756 mmHg 70%
22:00 +8°C° 0 mm 3 mps 756 mmHg 73%
23:00 +8°C° 0 mm 3 mps 756 mmHg 77%

26 October, Monday

Time Temperature Precipitation Wind Pressure Humidity
00:00 +7°C° 0 mm 3 mps 756 mmHg 80%
01:00 +7°C° 0 mm 3 mps 757 mmHg 84%
02:00 +5°C° 0 mm 3 mps 757 mmHg 87%
03:00 +5°C° 0 mm 3 mps 757 mmHg 88%
04:00 +5°C° 0 mm 3 mps 757 mmHg 90%
05:00 +4°C° 0 mm 3 mps 757 mmHg 91%
06:00 +5°C° 0 mm 3 mps 757 mmHg 87%
07:00 +7°C° 0 mm 3 mps 758 mmHg 83%
08:00 +6°C° 0 mm 4 mps 758 mmHg 79%
09:00 +8°C° 0 mm 3 mps 758 mmHg 73%
10:00 +10°C° 0 mm 3 mps 758 mmHg 66%
11:00 +11°C° 0 mm 3 mps 758 mmHg 60%
12:00 +12°C° 0 mm 3 mps 758 mmHg 57%
13:00 +13°C° 0 mm 2 mps 758 mmHg 55%
14:00 +14°C° 0 mm 2 mps 757 mmHg 52%
15:00 +13°C° 0 mm 2 mps 757 mmHg 55%
16:00 +12°C° 0 mm 2 mps 757 mmHg 58%
17:00 +11°C° 0 mm 1 mps 757 mmHg 61%
18:00 +10°C° 0 mm 2 mps 757 mmHg 62%
19:00 +9°C° 0 mm 2 mps 757 mmHg 63%
20:00 +8°C° 0 mm 2 mps 757 mmHg 65%
21:00 +8°C° 0 mm 2 mps 757 mmHg 65%
22:00 +7°C° 0 mm 2 mps 758 mmHg 65%
23:00 +8°C° 0 mm 1 mps 758 mmHg 65%
Show more